TIME,DELAY(SENSOR),PRES,T(CTD),SAL,OXYGEN,RAWTEMP,T(OPTODE),TCPHASE,FLUOR,BETA(BETA700),BETA(BETA412),BETA(BETA440),CDOM,C(CSC),ED(ED411.90),ED(ED443.80),ED(ED489.40),ED(ED554.70),LU(LU412.20),LU(LU443.80),LU(LU489.40),LU(LU555.00),COMP,TILTX,TILTX(TILTY),CHECK
1359216055,5805,497.6700134277344000,16.9437007904052730,36.3485984802246100,214.5664978027343800,189.9434967041015600,16.9514904022216800,32.2512092590332000,54,109,96,79,68,12128,2146960118,2147513435,2147271442,2147463936,2147083446,2146952484,2147661997,2147123757,2412,-1,8,17006
1359216187,5805,485.9700012207031000,17.1259002685546880,36.3839988708496100,217.5923004150390600,184.2449035644531200,17.1233100891113280,32.0099792480468750,54,108,95,79,68,12127,2146958829,2147515894,2147269942,2147463168,2147085330,2146953325,2147659337,2147125184,1620,-1,8,30605
1359216310,5807,475.0599975585937500,17.2296009063720700,36.4038009643554700,218.6242065429687500,180.8771972656250000,17.2248802185058600,31.9086704254150400,54,108,96,79,69,12127,2146959424,2147513115,2147271643,2147462582,2147082358,2146957357,2147656566,2147130002,818,-1,8,34109
1359216431,5804,464.2099914550781000,17.3441009521484380,36.4239997863769500,221.7147064208984400,177.2210998535156200,17.3351497650146500,31.6963291168212900,54,109,97,81,68,12124,2146956105,2147511296,2147267648,2147461595,2147083830,2146956882,2147654052,2147130148,3584,-1,8,46503
1359216552,5809,453.0799865722656000,17.4239006042480470,36.4367980957031250,219.7731933593750000,174.3925933837890600,17.4204807281494140,31.7588996887207030,54,110,96,80,67,12128,2146956205,2147510500,2147267309,2147459657,2147080283,2146953289,2147657609,2147125915,2667,-1,8,22522
1359216675,5805,441.6099853515625000,17.4874000549316400,36.4483985900878900,220.5518951416015600,172.3739929199218800,17.4813804626464840,31.6906108856201170,54,112,96,79,68,12126,2146956635,2147515520,2147268635,2147461238,2147077750,2146957659,2147654994,2147127085,2093,-1,9,45036
1359216785,5805,431.1799926757812500,17.6058998107910160,36.4725990295410160,222.0950927734375000,167.7958068847656200,17.6195201873779300,31.5477905273437500,55,109,97,81,68,12128,2146954112,2147510381,2147265307,2147460123,2147083446,2146958016,2147655414,2147132022,1554,-1,8,15774
1359216906,5806,419.6300048828125000,17.6972007751464840,36.4911994934082000,226.2604980468750000,165.5514068603515600,17.6872596740722660,31.3041496276855470,54,108,95,80,67,12130,2146958784,2147513600,2147267245,2147460068,2147083538,2146957568,2147651520,2147125001,1151,-1,8,48961
1359217029,5805,408.0299987792969000,17.7686996459960940,36.5054016113281250,226.1799011230468800,163.1405944824218800,17.7600307464599600,31.2756195068359380,54,108,96,81,66,12123,2146957366,2147511698,2147267035,2147458432,2147084836,2146956306,2147656585,2147126436,458,-1,8,39321
1359217150,5804,396.7500000000000000,17.8358001708984380,36.5201988220214840,230.4629058837890600,160.9286956787109400,17.8267993927001950,31.0315494537353500,55,107,94,81,68,12125,2146959067,2147512182,2147267821,2147459154,2147079643,2146965147,2147653138,2147122761,2915,-1,8,3020
1359217262,5805,386.4599914550781000,17.8943004608154300,36.5303001403808600,231.3166046142578000,158.8480987548828000,17.8896102905273440,30.9616203308105470,54,108,96,80,67,12126,2146956324,2147514011,2147267858,2147458514,2147084050,2146956781,2147655360,2147127067,2259,-1,8,7603
1359217383,5805,375.6199951171875000,17.9435005187988280,36.5376014709472660,230.9918060302734400,157.0339965820312500,17.9443893432617200,30.9528999328613280,54,109,96,79,67,12125,2146959296,2147511954,2147267913,2147456365,2147080292,2146959387,2147655268,2147125714,1289,-2,8,5091
1359217515,5809,364.1900024414062500,18.0049991607666000,36.5470008850097660,231.8376007080078000,155.1757965087890600,18.0005092620849600,30.8864097595214840,54,108,95,79,67,12125,2146957156,2147511204,2147263204,2147455369,2147070336,2146960804,2147654317,2147128082,208,-1,8,4211
1359217638,5805,353.8399963378906000,18.0578002929687500,36.5559005737304700,231.5944061279297000,153.2660064697265600,18.0581798553466800,30.8729591369628900,54,108,95,80,67,12124,2146956150,2147513709,2147268882,2147452937,2147082651,2146961737,2147651675,2147127734,3378,-1,9,43735
1359217781,5807,342.2300109863281000,18.1334991455078120,36.5639991760253900,231.0457000732422000,150.9485931396484400,18.1281795501709000,30.8686199188232420,54,109,95,79,67,12123,2146957504,2147513709,2147268233,2147454336,2147085120,2146960411,2147655844,2147126281,2655,-1,9,48444
1359217915,5804,331.7500000000000000,18.1651000976562500,36.5661010742187500,230.0299072265625000,149.8701934814453000,18.1607608795166000,30.9042396545410160,54,108,96,81,67,12125,2146959414,2147514422,2147265042,2147455094,2147078518,2146960448,2147654857,2147127396,2239,-2,9,37413
1359218058,5806,320.9700012207031000,18.2275009155273440,36.5698013305664060,228.9243011474609400,147.8495941162109400,18.2218093872070300,30.9318199157714840,55,109,97,79,68,12123,2146959405,2147513691,2147266285,2147455579,2147077101,2146964397,2147652736,2147126528,1688,-1,8,62733
1359218212,5806,308.9899902343750000,18.2819995880126950,36.5732002258300800,225.2039031982422000,145.7118988037109400,18.2863998413085940,31.0895404815673830,54,109,95,80,68,12124,2146956242,2147513334,2147265353,2147454363,2147081490,2146968640,2147654674,2147127570,910,-2,8,14784
1359218324,5808,298.2999877929687500,18.3880996704101560,36.5842018127441400,223.7210998535156200,142.0599060058593800,18.3967800140380860,31.1160793304443360,54,109,95,80,68,12122,2146957229,2147515803,2147267318,2147457106,2147078912,2146960877,2147659227,2147128548,3577,-1,8,5928
1359218434,5803,287.1300048828125000,18.4890003204345700,36.5942993164062500,222.2097930908203000,139.1699981689453000,18.4841403961181640,31.1541004180908200,54,109,95,80,67,12120,2146957412,2147513901,2147265517,2147453897,2147084736,2146962249,2147656621,2147128448,2050,-1,8,9523
1359218546,5805,275.4899902343750000,18.5935993194580080,36.6035003662109400,220.9095001220703000,135.6945953369140600,18.5892200469970700,31.1743907928466800,53,110,96,80,69,12123,2146955126,2147513097,2147263744,2147453321,2147077686,2146968118,2147655753,2147126208,1247,-2,8,40328
1359218645,5806,265.1600036621094000,18.6763992309570300,36.6097984313964840,219.8786926269531200,132.8276977539062500,18.6759300231933600,31.1894207000732420,53,109,96,80,68,12123,2146956644,2147513353,2147265700,2147452297,2147079524,2146963053,2147659364,2147127762,588,-1,8,28080
1359218755,5806,253.7899932861328000,18.7455005645751950,36.6114997863769500,219.0652008056640600,130.5596008300781200,18.7445507049560550,31.2011909484863280,54,106,96,80,68,12124,2146956041,2147511881,2147260233,2147455606,2147084818,2146976512,2147662345,2147129910,3025,-2,8,3177
1359218872,5804,243.4199981689453000,18.8523006439209000,36.6094017028808600,221.1493988037109400,127.2220001220703100,18.8455295562744140,31.0483608245849600,54,109,96,79,68,12126,2146958427,2147512832,2147266185,2147452160,2147080082,2146969069,2147671158,2147128155,2841,-2,8,60013
1359219026,5808,232.6999969482422000,18.9806003570556640,36.6260986328125000,222.7991027832031200,122.8958969116211000,18.9764804840087900,30.9060993194580080,53,108,96,79,67,12124,2146957705,2147512393,2147262025,2147449444,2147074011,2146972242,2147679268,2147129782,348,-1,8,11240
1359219179,5807,221.2500000000000000,19.1821994781494140,36.6417007446289060,222.1829986572265600,115.4480972290039000,19.2020301818847660,30.8383102416992200,54,108,95,80,67,12119,2146957449,2147509174,2147264457,2147450633,2147078016,2146996873,2147713426,2147130514,2248,-2,8,53989
1359219300,5804,210.7100067138672000,19.3554000854492200,36.6427993774414060,223.3018035888672000,110.5878982543945300,19.3493003845214840,30.7171802520751950,54,107,95,78,68,12121,2146960036,2147512612,2147265993,2147449462,2147084260,2147002797,2147728512,2147133467,2905,-1,9,21266
1359219434,5805,199.5099945068359400,19.4839000701904300,36.6282997131347660,228.8115997314453000,106.1448974609375000,19.4839897155761720,30.3835506439209000,55,108,94,80,67,12123,2146958299,2147512237,2147269120,2147448018,2147088914,2147021275,2147766902,2147135497,2124,-1,9,46109
1359219489,5804,194.8800048828125000,19.5664005279541000,36.6271018981933600,230.9671936035156200,102.9966964721679700,19.5794601440429700,30.2371406555175780,55,109,95,80,67,12120,2146957229,2147511981,2147267392,2147450084,2147087689,2147017810,2147758308,2147135286,2444,-2,9,58707
1359219544,5803,190.4499969482422000,19.6212005615234380,36.6315994262695300,231.9243011474609400,101.7937011718750000,19.6159591674804700,30.1751594543457030,54,109,96,81,67,12119,2146959003,2147514642,2147270253,2147450313,2147091209,2147037019,2147802697,2147140571,1935,-2,9,62158
1359219599,5805,186.0099945068359400,19.6779994964599600,36.6344985961914060,232.2353973388672000,99.9110870361328100,19.6730709075927730,30.1354103088378900,56,109,96,81,66,12117,2146958729,2147513554,2147268827,2147447012,2147092242,2147032941,2147791725,2147134592,1570,-2,9,36904
1359219654,5802,181.5099945068359400,19.7234001159667970,36.6369018554687500,232.4636993408203000,98.3414688110351600,19.7206993103027340,30.1039695739746100,56,112,95,81,66,12115,2146959451,2147516251,2147268525,2147445814,2147091136,2147049453,2147818212,2147141467,1355,-1,9,14458
1359219709,5804,177.0200042724609400,19.7707004547119140,36.6413002014160160,232.5722961425781200,96.8759765625000000,19.7651805877685550,30.0797100067138670,55,110,95,80,68,12114,2146955309,2147516580,2147270400,2147446838,2147094893,2147084644,2147878948,2147142144,1419,-2,9,41818
1359219784,5808,171.4400024414062500,19.8843002319335940,36.6487998962402340,232.8892974853515600,93.2759704589843800,19.8744697570800780,30.0174999237060550,56,110,96,81,66,12115,2146958354,2147516315,2147272283,2147445467,2147100754,2147127506,2147980818,2147149421,901,-2,9,23505
1359219839,5808,167.8300018310547000,19.9165000915527340,36.6515998840332000,232.9980010986328000,91.3321304321289000,19.9335002899169920,29.9867897033691400,57,109,96,80,67,12118,2146955099,2147516690,2147269449,2147445558,2147098240,2147093449,2147884763,2147145974,771,-2,9,51158
1359219894,5806,164.3699951171875000,20.0569000244140620,36.6621017456054700,232.9234008789062500,87.3220062255859400,20.0553207397460940,29.9382705688476560,57,111,96,81,68,12080,2146955794,2147516214,2147269906,2147446866,2147096457,2147089289,2147869906,2147142281,828,-2,9,36736
1359219960,5805,160.5099945068359400,20.1056995391845700,36.6678009033203100,233.0774993896484400,85.7945632934570300,20.1017303466796880,29.9109992980957030,57,109,95,80,67,12109,2146957110,2147517275,2147271424,2147445988,2147100635,2147106203,2147894354,2147141211,318,-2,9,61419
1359220037,5804,156.0800018310547000,20.1532993316650400,36.6699981689453100,233.2969970703125000,84.1101684570312500,20.1529293060302730,29.8786106109619140,58,112,96,80,66,12109,2146956370,2147523062,2147273801,2147443648,2147109156,2147176941,2148033554,2147153673,3487,-2,9,41941
1359220115,5805,152.3500061035156200,20.2117996215820300,36.6706008911132800,233.7299041748047000,82.4405212402343800,20.2036895751953120,29.8365192413330080,57,114,96,80,68,12107,2146956571,2147521938,2147279881,2147443995,2147118299,2147238153,2148136000,2147157906,3486,-1,9,16786
1359220203,5806,148.8899993896484400,20.2625007629394530,36.6673011779785160,234.0628051757812500,80.7235565185546900,20.2558898925781250,29.7984104156494140,57,117,97,81,67,12104,2146959049,2147524059,2147280640,2147443556,2147128182,2147294628,2148227904,2147165330,332,-2,9,15308
1359220313,5804,144.9199981689453000,20.3164997100830080,36.6734008789062500,234.2012023925781200,78.7787399291992200,20.3150405883789060,29.7667102813720700,59,114,98,82,68,12099,2146958180,2147525888,2147279844,2147445229,2147126052,2147271908,2148178102,2147160054,3474,-2,9,41004
1359220422,5806,140.6199951171875000,20.4785003662109380,36.6773986816406250,233.8374023437500000,73.9293136596679700,20.4625892639160160,29.7211303710937500,57,118,98,82,68,12093,2146957878,2147521325,2147273024,2147444251,2147119469,2147175241,2147972690,2147151442,527,-2,8,17747
1359220510,5805,136.5700073242187500,20.6734008789062500,36.6834983825683600,233.6636962890625000,67.2248535156250000,20.6667308807373050,29.6431102752685550,59,120,99,83,66,12089,2146956635,2147516964,2147272813,2147442230,2147127323,2147188342,2147979565,2147149677,75,-1,9,3427
1359220609,5806,133.0399932861328000,20.7124004364013670,36.6864013671875000,234.1688995361328000,65.9467315673828100,20.7056598663330080,29.6027698516845700,59,124,99,82,67,12089,2146956059,2147527387,2147281170,2147443858,2147153152,2147323163,2148191369,2147166436,3244,-2,9,1909
1359220733,5804,128.5700073242187500,20.7849006652832030,36.6920013427734400,234.5088958740234400,63.1348686218261700,20.7913494110107420,29.5505199432373050,60,122,98,83,66,12091,2146956626,2147538651,2147303670,2147443748,2147221824,2147709321,2148829238,2147204580,2135,-2,9,12174
1359220821,5803,124.3000030517578100,21.0657005310058600,36.6880989074707000,236.0494995117187500,54.4510688781738300,21.0561790466308600,29.3668708801269530,59,123,99,83,66,12084,2146960758,2147531337,2147294418,2147441316,2147209892,2147560265,2148516717,2147187474,1433,-2,8,53472
1359220898,5804,120.6299972534179700,21.1235008239746100,36.6778984069824200,237.6699066162109400,52.6465911865234400,21.1112499237060550,29.2686595916748050,59,120,99,84,65,12081,2146962907,2147535515,2147301878,2147439369,2147257270,2147719305,2148753984,2147203172,740,-2,9,24513
1359220986,5805,116.1399993896484400,21.1564006805419920,36.6744003295898440,238.9886932373047000,51.3489913940429700,21.1508598327636720,29.1912593841552730,60,121,100,83,64,12080,2146957906,2147530267,2147297344,2147440758,2147270774,2147679990,2148623990,2147197641,856,-1,9,9630
1359221054,5804,112.6900024414062500,21.2308998107910160,36.6575012207031250,240.1640014648437500,48.9987716674804700,21.2226295471191400,29.1076793670654300,60,125,100,83,64,12078,2146966573,2147549129,2147323072,2147441444,2147373275,2148067172,2149194267,2147235794,668,-2,9,64679
1359221142,5806,108.7900009155273400,21.4122009277343750,36.6325988769531250,241.8892974853515600,43.3167304992675800,21.3962306976318360,28.9570198059082030,60,124,99,84,65,12068,2146967414,2147544914,2147309869,2147445924,2147368585,2147931657,2148907062,2147217389,343,-2,9,39891
1359221241,5805,105.1500015258789000,21.4848003387451170,36.6066017150878900,244.2823944091797000,40.8062095642089840,21.4729804992675780,28.8178691864013670,61,123,100,84,64,12070,2146971355,2147551122,2147312173,2147442806,2147412480,2148012480,2148992073,2147223350,632,-2,9,5587
1359221364,5803,100.7900009155273400,21.5144996643066400,36.5936012268066400,247.9315032958984400,39.6020507812500000,21.5098094940185550,28.6412200927734380,62,124,100,84,62,12054,2146977563,2147567552,2147339529,2147441874,2147606006,2148533833,2149649536,2147275392,158,-2,9,23058
1359221419,5808,98.0100021362304700,21.5212001800537100,36.5886993408203100,249.8574066162109400,39.2177009582519500,21.5215606689453120,28.5526103973388670,63,133,101,85,63,12049,2146981449,2147578934,2147356105,2147442349,2147740992,2148864768,2150056795,2147305956,48,-1,8,64639
1359221474,5806,95.1900024414062500,21.5860996246337900,36.6040000915527340,248.9051971435547000,37.1775817871093750,21.5839691162109380,28.5684394836425780,61,131,102,85,63,12053,2146992795,2147595657,2147379675,2147440082,2147933961,2149350061,2150664402,2147353737,304,-1,9,56629
1359221529,5806,92.2799987792968800,21.6180000305175780,36.6091995239257800,247.2223052978515600,36.2124900817871100,21.6135005950927730,28.6299591064453120,62,131,101,84,64,12057,2146996918,2147611739,2147410642,2147446290,2148160713,2149893028,2151344987,2147403200,697,-2,9,10557
1359221584,5804,89.4300003051757800,21.6343994140625000,36.6036987304687500,247.3246002197265600,35.1970596313476560,21.6445693969726560,28.6126594543457030,62,125,100,85,63,12052,2147005750,2147626733,2147437092,2147445165,2148351140,2150333074,2151900662,2147450953,474,-1,8,5913
1359221639,5805,86.5999984741211000,21.6434993743896500,36.6026992797851560,247.6649017333984400,35.3011093139648440,21.6413898468017580,28.5991401672363280,62,126,99,85,63,12055,2147002779,2147619126,2147417243,2147442925,2148326390,2150104310,2151525083,2147424109,462,-2,9,63711
1359221696,5806,83.6600036621093800,21.6418991088867200,36.6013984680175800,247.9228057861328000,35.5051803588867200,21.6351394653320300,28.5904006958007800,62,127,100,85,63,12050,2147001078,2147614948,2147402432,2147440822,2148302016,2149912950,2151207314,2147404809,191,-2,9,5965
1359221751,5806,80.8300018310546900,21.6299991607666000,36.5920982360839840,249.3663024902343800,35.7440605163574200,21.6278305053710940,28.5303592681884770,63,126,101,87,62,12040,2147004809,2147619254,2147412845,2147444836,2148419282,2150119753,2151427574,2147430016,3105,-2,9,11286
1359221806,5802,78.0800018310546900,21.6273002624511720,36.5864982604980500,250.5928955078125000,35.8043518066406250,21.6259899139404300,28.4778709411621100,65,131,102,86,62,12030,2147013760,2147630966,2147427812,2147444214,2148595081,2150458459,2151826413,2147469586,2862,-1,9,7264
1359221861,5807,75.2900009155273400,21.6282005310058600,36.5856018066406250,251.6782989501953000,35.7811393737793000,21.6266994476318360,28.4306793212890620,67,131,101,85,63,12007,2147017682,2147637302,2147433673,2147445302,2148739474,2150661129,2152028077,2147496301,2755,-2,9,21241
1359221916,5808,72.3899993896484400,21.6338005065917970,36.5834007263183600,252.9333038330078000,35.6353912353515600,21.6311607360839840,28.3751201629638670,69,135,106,87,62,12000,2147024685,2147646134,2147442816,2147445577,2148899574,2150859968,2152199789,2147529984,2687,-2,9,57842
1359221971,5806,69.3700027465820300,21.6366004943847660,36.5830001831054700,253.4846954345703000,35.5567092895507800,21.6335697174072270,28.3506793975830080,69,138,103,86,63,12007,2147034029,2147656429,2147458633,2147446994,2149138834,2151200822,2152551506,2147577654,2636,-2,9,634
1359222028,5802,66.0999984741211000,21.6422996520996100,36.5830001831054700,253.6828002929687500,35.3179206848144500,21.6408691406250000,28.3390903472900400,70,141,103,87,63,11997,2147046153,2147668132,2147473444,2147448694,2149417554,2151590985,2152940708,2147638555,2541,-2,9,29784
1359222083,5804,62.7500000000000000,21.6522006988525400,36.5862007141113300,253.3569030761718800,35.0571098327636700,21.6488609313964840,28.3498096466064450,68,134,105,87,62,12000,2147062281,2147693065,2147509686,2147453632,2149903296,2152388964,2153822454,2147752438,2427,-2,9,42848
1359222138,5805,59.3800010681152340,21.7007007598876950,36.5857009887695300,252.7720947265625000,33.8053398132324200,21.6871700286865230,28.3592090606689450,68,139,104,86,62,12006,2147093001,2147740982,2147567588,2147456137,2150663232,2153726226,2155326473,2147944512,2191,-2,9,4806
1359222193,5807,56.2099990844726560,21.7136993408203120,36.5862998962402340,252.1085968017578000,32.6859397888183600,21.7214393615722660,28.3736991882324220,70,139,105,89,62,12007,2147108992,2147763446,2147599606,2147462710,2151088054,2154371172,2156002752,2148052882,1846,-2,9,51281
1359222335,5806,50.1399993896484400,21.8181991577148440,36.5853004455566400,249.8014984130859400,28.5912399291992200,21.8468494415283200,28.4219493865966800,68,133,103,86,63,11999,2147154459,2147817408,2147666450,2147477595,2152231954,2155961782,2157558939,2148342875,1698,-2,9,63427
1359222371,5807,48.5699996948242200,21.8680000305175780,36.5864982604980500,249.3027038574218800,28.4951496124267580,21.8497905731201170,28.4424095153808600,69,129,101,86,61,12022,2147169353,2147838180,2147684818,2147483318,2152653961,2156534034,2158105261,2148450724,1519,-1,9,34672
1359222416,5809,46.6899986267089840,21.8840999603271500,36.5858993530273440,248.5281066894531200,26.2376804351806640,21.9189701080322270,28.4477596282959000,68,130,102,85,63,12019,2147188717,2147864036,2147713819,2147484845,2153160978,2157239049,2158782116,2148582144,1742,-2,9,50859
1359222473,5805,44.9099998474121100,21.9484996795654300,36.5820999145507800,248.0538024902343800,25.6640205383300780,21.9365501403808600,28.4612693786621100,67,134,102,86,62,12015,2147219035,2147904694,2147764443,2147496137,2153982893,2158461531,2160028397,2148789174,1914,-2,9,4498
1359222506,5805,43.7299995422363300,21.9811992645263670,36.5766983032226560,247.6864013671875000,24.4912204742431640,21.9725093841552730,28.4626293182373050,67,131,103,86,64,12010,2147245961,2147944658,2147819620,2147505773,2154763108,2159631433,2161244342,2149004717,1626,-2,9,21802
1359222563,5804,41.6599998474121100,22.0058994293212900,36.5741996765136700,248.2902069091797000,23.5772800445556640,22.0005302429199220,28.4249305725097660,71,135,103,86,64,12008,2147330514,2148055332,2147962084,2147531894,2156884278,2162904310,2164725229,2149600201,1428,-2,9,29390
1359222620,5806,39.6899986267089840,21.9967994689941400,36.5765991210937500,248.3710021972656200,23.7185096740722660,21.9962005615234380,28.4229793548584000,70,133,103,87,63,12002,2147442532,2148204077,2148141778,2147558820,2159961709,2167581860,2169696749,2150509202,1732,-2,9,11109
1359222701,5809,36.2999992370605500,22.0426998138427730,36.5699005126953100,248.2115020751953000,22.3243293762207030,22.0389499664306640,28.4126605987548830,74,135,103,85,63,11985,2147530596,2148299044,2148251666,2147589558,2162153069,2170251611,2172223058,2151173732,1711,-2,9,464
1359222734,5807,34.4599990844726560,22.0424995422363280,36.5700988769531250,248.5565032958984400,22.1396293640136720,22.0446090698242200,28.3952903747558600,76,135,105,88,60,11974,2147572690,2148344786,2148297243,2147609792,2163226907,2171366646,2173197897,2151567588,1693,-2,9,40476
1359222767,5806,32.5600013732910160,22.0447998046875000,36.5705986022949200,248.6645965576172000,22.0949802398681640,22.0459804534912100,28.3900108337402340,75,137,103,86,63,11974,2147637531,2148402944,2148373869,2147633664,2164790336,2173204379,2174904640,2152074989,1674,-1,9,13824
1359222800,5803,30.6100006103515620,22.0499000549316400,36.5682983398437500,248.7723999023437500,21.9170703887939450,22.0514392852783200,28.3830699920654300,76,137,103,85,62,11965,2147699940,2148469513,2148448347,2147662665,2166509988,2175117714,2176698550,2152708141,1644,-2,8,16283
1359222833,5807,28.6499996185302730,22.0543994903564450,36.5680999755859400,248.8114013671875000,21.8293495178222660,22.0541305541992200,28.3803100585937500,75,135,101,88,64,11962,2147776822,2148548918,2148529728,2147697316,2168468397,2177251373,2178593371,2153418742,1784,-1,9,8616
1359222866,5807,26.6499996185302730,22.0557003021240230,36.5680007934570300,249.0218963623047000,21.7448692321777340,22.0567207336425780,28.3702602386474600,75,134,103,87,64,11962,2147869961,2148641737,2148632000,2147736594,2170943707,2180019117,2181095451,2154323885,1808,-2,9,24526
